When you browse on this site, cookies collect data to enhance your experience and personalize the content and advertising you see.
Visit our Privacy Policy to learn more. By continuing to use the site, you agree to this use of cookies and data.
  • In Deutschland
  • Länderverzeichnis
  • Für 7 Tage
  • Wassertemperatur
  • Satellitenkarten
  • Wetterkarte
  • Widgets
  • user-avatar
    Anmelden

    Stündliche Wetter Laszkar Gah

    Heute, 19 Juli, Freitag

    Zeit Temperatur Niederschläge Wind Luftdruck Luftfeuchtigkeit
    00:00 +32°C° 0 mm 1 m/S 683 mmHg 8%
    01:00 +30°C° 0 mm 1 m/S 682 mmHg 9%
    02:00 +30°C° 0 mm 1 m/S 683 mmHg 9%
    03:00 +30°C° 0 mm 2 m/S 683 mmHg 9%
    04:00 +30°C° 0 mm 3 m/S 683 mmHg 8%
    05:00 +33°C° 0 mm 3 m/S 684 mmHg 7%
    06:00 +35°C° 0 mm 3 m/S 685 mmHg 7%
    07:00 +37°C° 0 mm 3 m/S 686 mmHg 6%
    08:00 +39°C° 0 mm 3 m/S 686 mmHg 6%
    09:00 +42°C° 0 mm 3 m/S 686 mmHg 5%
    10:00 +44°C° 0 mm 3 m/S 687 mmHg 7%
    11:00 +45°C° 0 mm 3 m/S 686 mmHg 6%
    12:00 +47°C° 0 mm 3 m/S 686 mmHg 5%
    13:00 +49°C° 0 mm 4 m/S 686 mmHg 5%
    14:00 +49°C° 0 mm 4 m/S 685 mmHg 4%
    15:00 +50°C° 0 mm 4 m/S 685 mmHg 4%
    16:00 +50°C° 0 mm 4 m/S 684 mmHg 3%
    17:00 +48°C° 0 mm 4 m/S 684 mmHg 4%
    18:00 +44°C° 0 mm 4 m/S 683 mmHg 4%
    19:00 +42°C° 0 mm 4 m/S 683 mmHg 4%
    20:00 +39°C° 0 mm 3 m/S 683 mmHg 5%
    21:00 +37°C° 0 mm 3 m/S 683 mmHg 6%
    22:00 +34°C° 0 mm 2 m/S 683 mmHg 6%
    23:00 +34°C° 0 mm 2 m/S 683 mmHg 6%

    Morgen, 20 Juli, Samstag

    Zeit Temperatur Niederschläge Wind Luftdruck Luftfeuchtigkeit
    00:00 +32°C° 0 mm 2 m/S 683 mmHg 7%
    01:00 +31°C° 0 mm 2 m/S 684 mmHg 7%
    02:00 +30°C° 0 mm 2 m/S 684 mmHg 16%
    03:00 +29°C° 0 mm 2 m/S 684 mmHg 24%
    04:00 +28°C° 0 mm 3 m/S 684 mmHg 33%
    05:00 +30°C° 0 mm 3 m/S 685 mmHg 32%
    06:00 +31°C° 0 mm 3 m/S 686 mmHg 32%
    07:00 +34°C° 0 mm 4 m/S 687 mmHg 31%
    08:00 +36°C° 0 mm 4 m/S 687 mmHg 27%
    09:00 +40°C° 0 mm 4 m/S 687 mmHg 22%
    10:00 +42°C° 0 mm 4 m/S 688 mmHg 17%
    11:00 +44°C° 0 mm 3 m/S 687 mmHg 14%
    12:00 +45°C° 0 mm 2 m/S 687 mmHg 12%
    13:00 +46°C° 0 mm 1 m/S 687 mmHg 9%
    14:00 +46°C° 0 mm 1 m/S 686 mmHg 8%
    15:00 +48°C° 0 mm 2 m/S 686 mmHg 7%
    16:00 +48°C° 0 mm 3 m/S 685 mmHg 6%
    17:00 +46°C° 0 mm 2 m/S 685 mmHg 7%
    18:00 +42°C° 0 mm 2 m/S 685 mmHg 8%
    19:00 +40°C° 0 mm 2 m/S 684 mmHg 9%
    20:00 +38°C° 0 mm 2 m/S 684 mmHg 10%
    21:00 +37°C° 0 mm 2 m/S 684 mmHg 10%
    22:00 +36°C° 0 mm 2 m/S 685 mmHg 10%
    23:00 +35°C° 0 mm 2 m/S 685 mmHg 10%

    übermorgen, 21 Juli, Sonntag

    Zeit Temperatur Niederschläge Wind Luftdruck Luftfeuchtigkeit
    00:00 +35°C° 0 mm 3 m/S 685 mmHg 10%
    01:00 +34°C° 0 mm 3 m/S 685 mmHg 10%
    02:00 +33°C° 0 mm 3 m/S 685 mmHg 15%
    03:00 +31°C° 0 mm 3 m/S 685 mmHg 20%
    04:00 +30°C° 0 mm 2 m/S 685 mmHg 25%
    05:00 +31°C° 0 mm 3 m/S 686 mmHg 24%
    06:00 +34°C° 0 mm 4 m/S 686 mmHg 24%
    07:00 +35°C° 0 mm 4 m/S 687 mmHg 23%
    08:00 +37°C° 0 mm 5 m/S 687 mmHg 20%
    09:00 +41°C° 0 mm 5 m/S 688 mmHg 17%
    10:00 +43°C° 0 mm 5 m/S 688 mmHg 14%
    11:00 +46°C° 0 mm 5 m/S 688 mmHg 12%
    12:00 +47°C° 0 mm 4 m/S 687 mmHg 10%
    13:00 +49°C° 0 mm 4 m/S 687 mmHg 8%
    14:00 +48°C° 0 mm 3 m/S 686 mmHg 7%
    15:00 +48°C° 0 mm 2 m/S 686 mmHg 6%
    16:00 +48°C° 0 mm 1 m/S 685 mmHg 4%
    17:00 +47°C° 0 mm 2 m/S 685 mmHg 5%
    18:00 +44°C° 0 mm 3 m/S 684 mmHg 5%
    19:00 +42°C° 0 mm 4 m/S 684 mmHg 6%
    20:00 +41°C° 0 mm 5 m/S 684 mmHg 7%
    21:00 +41°C° 0 mm 6 m/S 685 mmHg 8%
    22:00 +40°C° 0 mm 7 m/S 685 mmHg 9%
    23:00 +39°C° 0 mm 6 m/S 685 mmHg 10%

    22 Juli, Montag

    Zeit Temperatur Niederschläge Wind Luftdruck Luftfeuchtigkeit
    00:00 +37°C° 0 mm 5 m/S 685 mmHg 11%
    01:00 +35°C° 0 mm 5 m/S 685 mmHg 12%
    02:00 +34°C° 0 mm 5 m/S 685 mmHg 15%
    03:00 +32°C° 0 mm 5 m/S 685 mmHg 18%
    04:00 +30°C° 0 mm 5 m/S 685 mmHg 21%
    05:00 +32°C° 0 mm 5 m/S 685 mmHg 22%
    06:00 +34°C° 0 mm 5 m/S 686 mmHg 23%
    07:00 +35°C° 0 mm 6 m/S 686 mmHg 25%
    08:00 +39°C° 0 mm 6 m/S 686 mmHg 21%
    09:00 +41°C° 0 mm 6 m/S 687 mmHg 17%
    10:00 +45°C° 0 mm 6 m/S 687 mmHg 13%
    11:00 +46°C° 0 mm 6 m/S 686 mmHg 11%
    12:00 +48°C° 0 mm 5 m/S 686 mmHg 9%
    13:00 +49°C° 0 mm 4 m/S 685 mmHg 7%
    14:00 +49°C° 0 mm 4 m/S 685 mmHg 6%
    15:00 +50°C° 0 mm 3 m/S 684 mmHg 5%
    16:00 +50°C° 0 mm 3 m/S 684 mmHg 4%
    17:00 +47°C° 0 mm 3 m/S 683 mmHg 6%
    18:00 +44°C° 0 mm 4 m/S 683 mmHg 7%
    19:00 +41°C° 0 mm 4 m/S 682 mmHg 8%
    20:00 +40°C° 0 mm 4 m/S 682 mmHg 9%
    21:00 +37°C° 0 mm 3 m/S 682 mmHg 9%
    22:00 +35°C° 0 mm 3 m/S 682 mmHg 10%
    23:00 +35°C° 0 mm 2 m/S 682 mmHg 11%

    23 Juli, Dienstag

    Zeit Temperatur Niederschläge Wind Luftdruck Luftfeuchtigkeit
    00:00 +34°C° 0 mm 2 m/S 682 mmHg 12%
    01:00 +32°C° 0 mm 2 m/S 682 mmHg 13%
    02:00 +33°C° 0 mm 3 m/S 682 mmHg 15%
    03:00 +33°C° 0 mm 4 m/S 683 mmHg 17%
    04:00 +32°C° 0 mm 4 m/S 683 mmHg 18%
    05:00 +34°C° 0 mm 4 m/S 683 mmHg 17%
    06:00 +35°C° 0 mm 4 m/S 684 mmHg 15%
    07:00 +36°C° 0 mm 3 m/S 685 mmHg 13%
    08:00 +38°C° 0 mm 3 m/S 685 mmHg 12%
    09:00 +40°C° 0 mm 3 m/S 685 mmHg 11%
    10:00 +43°C° 0 mm 3 m/S 686 mmHg 10%
    11:00 +45°C° 0 mm 3 m/S 685 mmHg 9%
    12:00 +47°C° 0 mm 4 m/S 685 mmHg 8%
    13:00 +49°C° 0 mm 4 m/S 685 mmHg 7%
    14:00 +49°C° 0 mm 4 m/S 684 mmHg 6%
    15:00 +49°C° 0 mm 4 m/S 684 mmHg 6%
    16:00 +50°C° 0 mm 4 m/S 683 mmHg 6%
    17:00 +48°C° 0 mm 4 m/S 683 mmHg 6%
    18:00 +46°C° 0 mm 5 m/S 683 mmHg 7%
    19:00 +42°C° 0 mm 5 m/S 683 mmHg 8%
    20:00 +41°C° 0 mm 4 m/S 683 mmHg 8%
    21:00 +38°C° 0 mm 4 m/S 683 mmHg 9%
    22:00 +36°C° 0 mm 3 m/S 683 mmHg 9%
    23:00 +35°C° 0 mm 2 m/S 682 mmHg 11%

    24 Juli, Mittwoch

    Zeit Temperatur Niederschläge Wind Luftdruck Luftfeuchtigkeit
    00:00 +32°C° 0 mm 2 m/S 682 mmHg 12%
    01:00 +31°C° 0 mm 1 m/S 682 mmHg 13%
    02:00 +31°C° 0 mm 2 m/S 682 mmHg 13%
    03:00 +30°C° 0 mm 2 m/S 682 mmHg 14%
    04:00 +30°C° 0 mm 3 m/S 682 mmHg 14%
    05:00 +31°C° 0 mm 3 m/S 683 mmHg 14%
    06:00 +33°C° 0 mm 4 m/S 683 mmHg 13%
    07:00 +34°C° 0 mm 4 m/S 684 mmHg 13%
    08:00 +36°C° 0 mm 4 m/S 684 mmHg 12%
    09:00 +38°C° 0 mm 4 m/S 685 mmHg 10%
    10:00 +40°C° 0 mm 3 m/S 685 mmHg 9%
    11:00 +43°C° 0 mm 3 m/S 685 mmHg 8%
    12:00 +45°C° 0 mm 3 m/S 684 mmHg 7%
    13:00 +47°C° 0 mm 3 m/S 684 mmHg 6%
    14:00 +47°C° 0 mm 3 m/S 683 mmHg 6%
    15:00 +47°C° 0 mm 3 m/S 683 mmHg 5%
    16:00 +48°C° 0 mm 2 m/S 682 mmHg 5%
    17:00 +45°C° 0 mm 2 m/S 682 mmHg 6%
    18:00 +41°C° 0 mm 2 m/S 681 mmHg 7%
    19:00 +39°C° 0 mm 2 m/S 681 mmHg 8%
    20:00 +38°C° 0 mm 2 m/S 681 mmHg 8%
    21:00 +37°C° 0 mm 2 m/S 681 mmHg 9%
    22:00 +36°C° 0 mm 2 m/S 682 mmHg 10%
    23:00 +35°C° 0 mm 2 m/S 681 mmHg 11%
    Mehr zeigen